SCP
0 0 0 0 0 0 0 0 0 0 0 0 0 0 0 0 0 0 0 0 0 0 0 1 1 1 1 0 0 0 0 0 0 0 0 0 0 0 0 0 0 0 0 0 0 0 0 0 0
0 0 0 0 0 0 0 0 0 0 0 0 0 0 0 0 0 0 0 0 0 0 0 1 1 1 1 0 0 0 0 0 0 0 0 0 0 0 0 0 0 0 0 0 0 0 0 0 0
0 0 0 0 0 0 0 0 0 0 0 0 0 0 0 0 0 0 0 0 0 0 1 1 1 1 1 1 0 0 0 0 0 0 0 0 0 0 0 0 0 0 0 0 0 0 0 0 0
0 0 0 0 0 0 0 0 0 0 0 0 0 0 0 0 0 0 0 0 0 0 1 1 1 1 1 1 0 0 0 0 0 0 0 0 0 0 0 0 0 0 0 0 0 0 0 0 0
0 0 0 0 0 0 0 0 0 0 0 0 0 0 0 0 0 0 0 1 1 1 1 1 1 1 1 1 1 0 0 0 0 0 0 0 0 0 0 0 0 0 0 0 0 0 0 0 0
0 0 0 0 0 0 0 0 0 0 0 0 0 0 0 0 0 1 1 1 1 1 1 1 1 1 1 1 1 1 0 0 0 0 0 0 0 0 0 0 0 0 0 0 0 0 0 0 0
0 0 0 0 0 0 0 0 0 0 0 0 0 0 0 0 1 1 1 1 1 1 1 1 1 1 1 1 1 1 1 0 0 0 0 0 0 0 0 0 0 0 0 0 0 0 0 0 0
0 0 0 0 0 0 0 0 0 0 0 0 0 0 0 0 1 1 1 1 1 1 1 1 1 1 1 1 1 1 0 0 0 0 0 0 0 0 0 0 0 0 0 0 0 0 0 0 0
0 0 0 0 0 0 0 0 0 0 0 0 0 0 0 1 1 1 1 1 1 1 1 1 1 1 1 1 1 0 0 0 0 0 0 0 0 0 0 0 0 0 0 0 0 0 0 0 0
0 0 0 0 0 0 0 0 0 0 0 0 0 0 0 1 1 1 1 1 1 1 1 1 1 1 1 1 1 0 0 0 0 0 0 0 0 0 0 0 0 0 0 0 0 0 0 0 0
0 0 0 0 0 0 0 0 0 0 0 0 0 0 0 1 1 1 1 1 1 1 1 1 1 1 1 1 1 0 0 0 0 0 0 0 0 0 0 0 0 0 0 0 0 0 0 0 0
0 0 0 0 0 0 0 0 0 0 0 0 0 0 0 1 1 1 1 1 1 1 1 1 1 1 1 1 1 0 0 0 0 0 0 0 0 0 0 0 0 0 0 0 0 0 0 0 0
0 0 0 0 0 0 0 0 0 0 0 0 0 0 0 0 1 1 1 1 1 0 1 1 1 1 1 1 1 0 0 0 0 0 0 0 0 0 0 0 0 0 0 0 0 0 0 0 0
0 0 0 0 0 0 0 0 0 0 0 0 0 0 0 0 1 1 1 1 1 0 0 1 1 1 1 1 0 0 0 0 0 0 0 0 0 0 0 0 0 0 0 0 0 0 0 0 0
0 0 0 0 0 0 0 0 0 0 0 0 0 0 0 0 0 1 0 0 0 0 0 0 1 1 1 1 0 0 0 0 0 0 0 0 0 0 0 0 0 0 0 0 0 0 0 0 0
0 0 0 0 0 0 0 0 0 0 0 0 0 0 0 0 0 0 0 0 0 0 0 0 1 1 1 1 0 0 0 0 0 0 0 0 0 0 0 0 0 0 0 0 0 0 0 0 0
0 0 0 0 0 0 0 0 0 0 0 0 0 0 0 0 0 0 0 0 0 0 0 0 1 1 1 1 0 0 0 0 0 0 0 0 0 0 0 0 0 0 0 0 0 0 0 0 0
0 0 0 0 0 0 0 0 0 0 0 0 0 0 0 0 0 0 0 0 0 0 0 0 0 1 1 1 0 0 0 0 0 0 0 0 0 0 0 0 0 0 0 0 0 0 0 0 0
0 0 0 0 0 0 0 0 0 0 0 0 0 0 0 0 0 0 0 0 0 0 0 0 0 0 1 0 0 0 0 0 0 0 0 0 0 0 0 0 0 0 0 0 0 0 0 0 0
0 0 0 0 0 0 0 0 0 0 0 0 0 0 0 0 0 0 0 0 0 0 0 0 0 0 0 0 0 0 0 0 0 0 0 0 0 0 0 0 0 0 0 0 0 0 0 0 0
0 0 0 0 0 0 0 0 0 0 0 0 0 0 0 0 0 0 0 0 0 0 0 0 0 0 0 0 0 0 0 0 0 0 0 0 0 0 0 0 0 0 0 0 0 0 0 0 0
0 0 0 0 0 0 0 0 0 0 0 0 0 0 0 0 0 0 0 0 0 0 0 0 0 0 0 0 0 0 0 0 0 0 0 0 0 0 0 0 0 0 0 0 0 0 0 0 0
0 0 0 0 0 0 0 0 0 0 0 0 0 0 0 0 0 0 0 0 0 0 0 0 0 0 0 0 0 0 0 0 0 0 0 0 0 0 0 0 0 0 0 0 0 0 0 0 0
0 0 0 0 0 0 0 0 0 0 0 0 0 0 0 0 0 0 0 0 0 0 0 0 0 0 0 0 0 0 0 0 0 0 0 0 0 0 0 0 0 0 0 0 0 0 0 0 0
0 0 0 0 0 0 0 0 0 0 0 0 0 0 0 0 0 0 0 0 0 0 0 0 0 0 0 0 0 0 0 0 0 0 0 0 0 0 0 0 0 0 0 0 0 0 0 0 0
0 0 0 0 0 0 0 0 0 0 0 0 0 0 0 0 0 0 0 0 0 0 0 0 0 0 0 0 0 0 0 0 0 0 0 0 0 0 0 0 0 0 0 0 0 0 0 0 0
0 0 0 0 0 0 0 0 0 0 0 0 0 0 0 0 0 0 0 0 0 0 0 0 0 0 0 0 0 0 0 0 0 0 0 0 0 0 0 0 0 0 0 0 0 0 0 0 0
0 0 0 0 0 0 0 -0 0 0 0 0 0 0 0 0 0 0 0 0 0 0 0 0 0 0 0 0 0 0 0 0 0 0 0 0 0 0 0 0 0 0 0 0 0 0 0 0 0
0 0 0 0 0 0 -0 -0 0 0 0 0 0 0 0 0 0 0 0 0 0 0 0 0 0 0 0 0 0 0 0 0 0 0 0 0 0 0 0 0 0 0 0 0 0 0 0 0 0
0 -0 0 0 0 0 -0 -0 0 0 0 0 0 0 0 0 0 0 0 0 0 0 0 0 0 0 0 0 0 0 0 0 0 0 0 0 0 0 0 0 0 0 0 0 0 0 0 0 0
Wind_Speed
9 5 2 3 5 3 3 5 4 2 2 2 1 5 6 4 3 3 2 7 10 11 10 12 13 13 13 13 13 13 12 12 12 12 12 12 13 13 13 12 12 13 13 13 13 13 13 13 13
4 3 3 4 4 3 5 5 5 6 4 1 3 4 5 3 2 6 4 7 11 11 10 10 13 13 14 14 13 12 12 12 12 11 11 12 12 12 12 12 12 12 12 12 12 12 12 12 12
4 1 3 3 4 7 6 5 6 5 3 0 3 3 3 3 3 3 4 10 11 9 8 10 13 14 14 13 13 12 12 11 11 11 11 11 12 12 12 12 12 12 12 11 11 11 11 11 10
2 3 3 2 7 6 5 3 2 2 3 2 3 3 2 1 2 4 9 11 10 8 7 9 13 14 14 13 13 12 12 11 11 11 10 11 11 11 11 11 11 11 11 11 10 10 10 10 10
3 3 2 3 7 4 3 3 2 1 1 2 3 3 2 4 5 10 11 11 11 8 6 9 12 13 13 13 13 12 12 11 11 11 10 11 11 11 10 10 10 10 10 10 10 9 9 9 10
2 3 3 6 7 4 3 3 1 1 1 1 3 3 1 2 7 8 9 9 9 8 7 7 10 11 11 13 13 12 12 11 10 10 10 10 10 10 10 9 9 9 9 9 9 9 9 9 9
2 3 4 5 4 3 3 2 1 1 1 1 2 4 2 2 4 6 9 9 8 8 7 5 6 7 9 9 9 10 11 11 10 9 9 9 9 9 9 9 9 9 9 8 8 8 8 8 7
2 2 3 3 4 5 2 1 1 1 2 1 2 6 4 3 4 6 8 9 8 6 6 5 4 5 5 6 8 7 8 9 9 8 8 7 7 8 8 7 8 8 8 8 8 7 7 7 6
2 1 5 5 4 3 1 1 3 1 2 2 1 2 4 5 7 8 8 7 7 6 4 4 4 4 4 4 6 6 7 7 7 6 7 6 3 3 4 5 7 7 7 7 7 7 6 5 4
2 3 6 3 2 2 2 2 2 1 2 2 3 3 5 6 8 9 8 8 7 6 5 4 4 3 4 4 4 3 3 4 4 4 4 3 2 2 3 5 6 6 6 6 6 5 4 3 1
2 4 3 3 2 1 2 3 2 2 2 3 3 4 4 6 6 8 8 7 7 7 6 4 4 3 3 3 3 2 2 2 3 4 4 3 2 2 2 2 3 3 3 2 2 2 1 1 1
2 4 4 4 3 2 3 3 2 3 5 4 6 9 6 6 6 7 8 6 6 6 5 5 4 4 3 3 2 2 2 2 2 2 3 3 2 2 2 2 2 2 1 2 1 1 1 1 2
3 4 5 5 5 3 3 4 3 5 4 3 5 7 7 6 5 5 6 6 6 5 5 5 5 4 3 3 2 2 2 2 2 2 2 3 3 3 2 2 2 2 2 2 2 2 2 2 1
3 3 5 5 5 4 3 6 3 5 3 4 6 6 5 6 5 5 5 6 6 5 5 5 5 5 4 2 2 2 2 2 2 2 2 3 3 3 3 2 2 2 2 2 2 3 2 2 2
2 3 5 5 5 4 1 4 5 6 4 5 5 5 5 4 5 6 6 6 6 5 5 5 6 5 4 3 2 2 2 2 2 2 2 2 2 3 3 3 2 2 2 2 2 2 2 2 1
1 1 3 4 4 3 3 7 6 3 5 5 5 5 5 4 4 4 4 4 5 5 5 5 5 5 5 4 3 2 2 2 2 2 2 2 2 2 2 2 2 2 2 1 2 2 2 1 1
1 3 5 4 3 2 3 6 5 3 5 5 5 5 4 3 3 3 3 4 4 5 5 5 5 6 5 4 3 2 3 2 2 2 2 2 2 2 2 2 2 2 2 1 2 1 2 2 1
4 4 4 5 3 2 2 5 6 4 4 5 5 5 5 5 5 3 3 4 4 4 5 5 5 5 4 3 2 2 2 2 1 2 2 2 2 2 2 1 1 2 2 1 1 1 0 2 2
3 3 5 6 3 2 4 6 7 6 2 4 5 4 5 5 4 3 4 3 3 3 4 4 4 5 4 3 3 3 3 2 2 1 1 2 2 2 2 2 1 2 2 2 2 2 1 1 1
3 4 5 4 3 2 4 6 7 5 5 5 5 5 5 4 3 3 3 3 3 4 4 4 4 5 5 4 3 3 2 2 2 1 1 1 2 2 2 2 2 2 2 2 2 2 1 1 1
4 5 4 4 4 2 1 5 5 4 3 2 2 3 4 5 5 4 3 3 4 4 4 3 4 4 4 4 3 2 2 1 1 0 1 1 2 2 2 2 2 2 2 3 3 3 3 2 1
4 4 4 4 2 3 2 4 7 4 3 3 3 2 3 4 4 5 4 4 4 4 4 4 3 4 4 4 4 5 4 3 2 2 2 1 1 1 1 2 2 2 2 3 4 3 2 3 2
4 3 3 3 2 3 3 3 7 3 4 6 4 3 3 4 5 5 5 5 4 3 3 3 3 3 3 4 4 5 4 2 1 2 2 1 1 1 1 2 2 2 2 2 3 3 3 2 3
2 2 2 2 1 4 5 4 6 5 7 5 4 4 3 3 3 4 4 3 2 2 2 2 2 2 3 3 4 5 5 4 3 2 2 2 1 1 1 1 2 2 2 3 3 3 4 3 3
2 3 2 3 1 6 4 4 7 5 4 5 5 5 4 4 3 3 3 3 3 3 3 2 3 2 2 3 4 4 5 5 5 4 3 3 2 2 3 2 2 2 3 3 2 3 4 4 4
2 4 4 3 4 4 2 6 6 4 2 2 3 4 3 3 3 3 3 3 3 3 3 3 3 3 2 3 3 3 3 3 3 3 3 3 3 2 3 3 3 3 3 2 2 2 3 3 3
3 2 3 2 1 2 4 5 7 3 3 1 1 2 3 3 3 3 3 2 2 2 3 4 4 3 3 3 3 2 3 3 3 2 2 2 2 2 2 2 2 2 3 3 2 2 3 2 3
2 3 3 3 2 3 4 4 4 4 4 3 2 3 3 3 3 2 2 2 2 2 2 2 3 3 3 3 3 2 2 2 2 2 1 2 2 2 3 2 3 2 2 2 2 2 2 2 2
1 2 2 2 3 3 3 6 4 5 5 4 4 3 3 2 3 2 1 1 1 1 1 1 2 2 2 3 2 2 2 2 2 2 2 2 2 2 3 3 3 3 2 2 2 2 2 3 2
3 4 5 3 4 3 3 8 3 2 3 3 3 2 2 1 1 1 0 1 1 0 0 1 2 2 3 2 2 2 2 1 1 1 2 2 2 2 2 2 2 2 2 2 3 3 3 3 3
Wind_Direction
327 329 31 58 62 62 232 242 230 243 227 227 136 112 122 122 148 160 125 130 131 142 147 146 142 141 139 134 130 127 125 123 120 120 117 116 114 113 110 109 110 109 108 105 103 102 99 99 99
324 336 51 66 111 179 248 241 228 229 213 127 64 81 81 74 79 109 116 139 137 142 144 145 142 140 140 137 134 132 130 128 126 125 121 119 118 115 113 110 109 108 107 105 104 102 102 102 100
321 28 86 96 161 194 214 225 224 245 265 64 60 51 97 111 114 126 142 140 132 135 140 143 141 140 141 139 138 136 134 131 130 129 124 123 121 119 117 114 110 110 109 108 107 106 104 102 99
33 50 62 127 215 220 205 229 229 291 339 32 105 64 55 53 141 137 135 129 127 129 135 141 141 141 142 141 140 139 136 135 134 131 128 128 125 122 119 117 116 113 113 114 113 110 107 104 103
62 93 120 222 231 238 246 273 292 291 336 16 89 96 34 349 102 123 130 127 126 127 132 142 138 142 142 144 143 141 138 137 136 132 129 129 127 125 125 124 122 120 118 119 118 115 112 108 105
62 94 156 218 227 241 256 266 308 291 299 18 78 101 116 69 103 127 127 124 124 125 127 133 135 135 140 144 146 144 143 142 140 136 133 132 131 130 132 131 128 126 123 124 124 121 115 110 107
126 145 196 209 217 237 251 273 172 234 309 275 139 111 136 92 104 123 123 118 116 117 118 124 131 133 134 138 142 148 147 145 143 140 137 136 136 136 136 135 134 132 130 132 130 125 120 113 110
142 137 210 213 206 228 271 284 236 174 253 303 101 131 167 190 133 109 112 113 115 112 113 115 124 127 130 135 128 130 142 144 145 142 137 136 138 139 139 139 141 140 139 137 137 132 122 117 112
82 135 213 212 201 224 297 291 309 340 93 40 33 158 162 152 128 113 109 109 116 119 121 122 117 124 127 131 131 129 131 135 135 136 136 135 134 137 141 146 143 146 146 143 143 141 128 111 106
111 199 225 225 202 211 265 266 279 14 355 10 14 36 107 123 131 129 130 134 138 142 139 131 128 125 132 130 126 133 126 132 132 132 129 132 138 143 139 138 142 142 143 145 142 142 130 107 86
169 216 248 269 273 281 283 287 286 164 254 226 185 152 135 127 132 136 140 148 154 155 149 142 137 131 129 130 131 125 122 124 127 136 136 132 126 129 126 128 131 132 130 128 127 111 127 132 127
210 255 259 273 295 301 286 286 292 236 233 217 180 159 152 149 149 151 153 153 151 153 154 148 143 140 131 136 140 138 136 134 129 131 135 138 139 138 144 146 147 144 145 148 146 148 150 150 149
237 255 271 271 288 283 291 277 260 269 266 186 158 152 158 163 162 164 155 152 145 149 151 151 145 141 137 131 144 138 144 141 136 136 138 141 148 154 153 155 162 163 162 164 163 167 161 153 147
232 257 278 277 275 274 262 275 264 254 222 163 158 163 169 161 154 156 153 152 154 154 157 154 149 144 139 133 149 148 148 143 140 137 148 140 147 160 163 161 163 176 180 178 173 175 170 166 155
264 278 284 269 257 252 237 287 248 239 178 168 176 172 167 163 154 163 171 164 162 163 160 159 153 147 146 141 151 145 153 149 146 151 149 144 144 161 168 169 177 186 183 175 157 156 147 142 140
326 255 260 262 232 244 177 248 261 219 162 182 185 179 168 169 172 176 164 159 157 157 159 165 158 153 154 151 152 151 150 150 156 154 153 151 151 151 162 169 186 187 164 147 153 154 144 151 156
238 228 241 267 232 222 190 243 266 247 180 188 192 184 170 170 190 190 163 161 163 163 162 165 163 160 161 155 148 148 147 147 153 147 156 161 149 153 159 175 182 173 157 154 159 160 162 170 181
213 227 237 239 240 181 229 259 279 283 199 197 201 189 176 180 204 194 174 167 164 161 160 167 171 165 161 149 130 127 127 138 146 153 164 156 154 153 151 152 174 165 158 170 165 156 174 175 178
228 229 261 257 256 224 247 266 278 281 227 211 206 195 190 203 214 192 180 165 155 148 157 171 181 172 161 157 164 169 172 171 172 174 156 150 149 150 146 152 153 170 177 187 178 158 146 191 161
236 251 254 279 284 245 246 273 277 267 236 211 197 199 202 204 213 205 176 161 170 171 173 177 185 178 173 174 179 181 173 172 174 163 148 154 157 164 165 159 175 176 179 182 182 157 163 200 181
247 228 233 252 298 286 247 289 273 270 247 229 204 199 207 200 197 196 185 181 179 182 180 180 197 183 178 166 146 127 120 111 110 159 191 193 179 177 180 177 181 186 186 196 199 181 176 190 226
252 226 234 250 254 272 197 262 271 259 264 243 234 231 233 222 201 190 186 186 186 197 189 174 189 181 174 165 164 167 172 180 199 196 196 196 187 193 188 182 189 196 202 204 203 196 189 175 199
238 253 251 256 230 290 259 225 270 238 243 249 239 229 231 219 194 185 188 187 178 182 182 174 182 180 170 169 175 175 178 183 163 167 168 191 223 217 211 194 191 203 214 219 206 194 192 190 190
241 352 5 25 59 254 238 203 260 233 226 242 237 228 224 213 201 188 179 171 162 159 169 167 181 170 171 172 177 182 177 170 165 180 186 197 220 232 230 218 206 208 218 225 219 202 195 203 195
60 83 35 358 319 246 239 223 248 244 232 216 216 221 222 209 199 190 175 170 174 178 178 179 172 168 182 183 183 192 183 178 184 190 195 200 217 238 228 225 223 222 220 225 221 205 201 202 202
210 151 160 203 233 277 270 237 255 264 262 251 224 212 215 213 203 194 181 182 187 193 193 185 178 179 184 195 196 190 180 181 195 199 200 204 215 229 231 230 227 234 229 222 213 218 214 200 202
156 181 174 142 270 268 263 280 295 301 319 303 271 239 231 213 197 193 183 180 183 205 210 185 178 182 193 196 193 182 179 179 190 208 212 208 213 220 225 232 230 231 224 221 210 214 218 200 203
149 150 108 129 197 261 280 261 257 273 268 279 274 252 244 221 206 198 189 192 204 217 220 192 187 191 191 185 189 184 184 188 187 183 205 224 217 214 214 224 227 226 222 213 206 211 215 202 217
148 137 135 159 193 195 257 265 232 229 230 228 248 264 262 239 207 199 189 161 162 205 182 191 201 193 192 186 186 183 190 187 183 190 213 227 226 211 212 219 220 217 211 201 197 204 205 206 222
182 185 167 183 235 215 214 267 281 247 240 213 229 262 278 260 204 161 135 81 67 20 211 199 207 198 203 187 176 189 193 182 193 216 230 229 225 219 218 216 214 218 211 205 200 204 209 205 210